CZ-3C DEB, 48544

Orbit data source: Space-Track

CZ-3C DEB, 48544 is space debris in HEO originally from a launch on Sun, 31 Oct 2010 UTC launched from the Xichang Space Center, China (XSC). Debris objects in space refer to the collection of defunct objects orbiting the Earth. Examples of debris include non-operational satellites, rocket bodies, and fragments generated from explosions, collisions, or faulty payload assembly.

Loading next visibility...
Identifier
48544, 2010-057BP
Orbit
HEO
Country
Flag of CNCN / PRC
Related business
Manufacturer
CALT
Mission
Spacecraft
Bus & Motor
Unknown
Mass
Unknown
Launch date (UTC)
2010-10-31 (16 years ago)
Launch vehicle
Unknown
Launch site
Xichang Space Center, China (XSC)
Object type
Payload
Rocket body
Debris
Shape & HBR
Unknown shape, 0.3 m
Radar Cross Section
Medium (>0.1 m² and <1 m²)

Expand to show TLE details & history
Last TLE update: 3 weeks ago

TLE from 3 weeks ago
0 CZ-3C DEB
1 48544U 10057BP  26245.03056744  .00001063  00000-0  72178-3 0  9994
2 48544  20.4098 139.3194 4837577 253.8490  49.3792  5.73523973233266
Epoch: 2026-09-02T00:44Z
TLE epoch observation values (Epoch: 2026-09-02T00:44:01.026Z)
Latitude
0.00008°
Longitude
147.14841°
Altitude
5,298.206 km
Speed
6.168 km/s
True Right ascension
09h 17m 21s
True Declination
0° 00' 00"
Sunlit
Object was in daylight at epoch
Visualization orbit readout
Latitude
Unknown
Longitude
Unknown
Altitude
Unknown
Speed
Unknown
Apparent Right ascension
Unknown
Apparent Declination
Unknown
Sunlit
N/A
Visualization observer readout
Local Sidereal Time
04:06:21
Azimuth
Unknown
Elevation
Unknown
Doppler factor
Unknown
Orbital elements
Apogee altitude
13,189.194 km
Perigee altitude
429.905 km
Semi-major axis
13,187.686 km
Eccentricity
0.48376
Inclination
20.4098°
RAAN
139.3194°
Arg. of periapsis
253.849°
True anomaly
106.20161°
Mean anomaly
49.3792°
Eccentric anomaly
76.30891°
Mean motion
1.43315 °/min
Orbital period
251.2 mins
BSTAR
0.00072178
Loading maneuver chart data...
Computing Atmospheric mass density...
Loading historical data...
Loading historical data...
Loading historical data...
Loading historical data...
Loading historical data...
Loading historical data...
Loading historical data...

Documentation

Showing up to 5 results
|